San Antonio Stinson, TX

7:24 PM CDT on September 25, 2017 (GMT -0500)
Stinson Municipal

Weather History for KSSF - November, 2010

Change the Weather History Date:

Sunday, November 21, 2010

  Actual Average Record
Temperature  
Mean Temperature 78 °F -  
Max Temperature 84 °F 67 °F 88 °F (2007)
Min Temperature 71 °F 48 °F 35 °F (2005)
Cooling Degree Days 12    
Growing Degree Days 28 (Base 50)    
Moisture  
Dew Point 64 °F    
Average Humidity 73    
Maximum Humidity 84    
Minimum Humidity 47    
Precipitation  
Precipitation 0.00 in - - ()
Sea Level Pressure  
Sea Level Pressure 29.99 in    
Wind  
Wind Speed 12 mph (SSE)    
Max Wind Speed 17 mph    
Max Gust Speed 28 mph    
Visibility 10 miles    
Events      
Averages and records for this station are not official NWS values.
T = Trace of Precipitation, MM = Missing Value Source: NWS Daily Summary

Daily Weather History Graph

Daily Weather History Graph

Search for Another Location

Airport or City:

Trip Planner

Search our weather history database for the weather conditions in past years. The results will help you decide how hot, cold, wet, or windy it might be!

Date:

Astronomy

Nov. 21, 2010 Rise Set
Actual Time 7:02 AM CST 5:36 PM CST
Civil Twilight 6:37 AM CST 6:02 PM CST
Nautical Twilight 6:08 AM CST 6:31 PM CST
Astronomical Twilight 5:39 AM CST 6:59 PM CST
Moon 5:34 PM CST (11/21) 7:00 AM CST (11/21)
Length of Visible Light 11h 24m
Length of Day
10h 33m
Full, 100% of the Moon is Illuminated
Nov 21
Full
Nov 28
Last Quarter
Dec 5
New
Dec 13
First Quarter
Dec 21
Full

Hourly Weather History & Observations

Time (CST) Temp. Heat Index Dew Point Humidity Pressure Visibility Wind Dir Wind Speed Gust Speed Precip Events Conditions
12:53 AM 71.1 °F - 64.9 °F 81% 30.03 in 10.0 mi SSE 11.5 mph 20.7 mph N/A   Overcast
1:49 AM 71.6 °F - 66.2 °F 83% 30.04 in 10.0 mi South 10.4 mph - N/A   Overcast
1:53 AM 71.1 °F - 66.0 °F 84% 30.01 in 10.0 mi South 9.2 mph - N/A   Overcast
2:09 AM 71.6 °F - 64.4 °F 78% 30.03 in 10.0 mi SSE 9.2 mph - N/A   Overcast
2:53 AM 71.1 °F - 64.9 °F 81% 30.00 in 10.0 mi SSE 13.8 mph - N/A   Overcast
3:53 AM 71.1 °F - 66.0 °F 84% 30.00 in 10.0 mi SSE 8.1 mph - N/A   Overcast
4:53 AM 71.1 °F - 64.9 °F 81% 30.00 in 10.0 mi SSE 11.5 mph - N/A   Overcast
5:53 AM 71.1 °F - 66.0 °F 84% 30.01 in 10.0 mi South 9.2 mph - N/A   Overcast
6:17 AM 71.6 °F - 66.2 °F 83% 30.03 in 10.0 mi SSE 9.2 mph - N/A   Overcast
6:53 AM 71.1 °F - 66.0 °F 84% 30.02 in 10.0 mi SSE 8.1 mph - N/A   Overcast
7:53 AM 71.1 °F - 66.0 °F 84% 30.04 in 10.0 mi SSE 10.4 mph - N/A   Overcast
8:48 AM 71.6 °F - 66.2 °F 83% 30.07 in 10.0 mi South 12.7 mph 19.6 mph N/A   Overcast
8:53 AM 72.0 °F - 64.9 °F 78% 30.06 in 10.0 mi SSE 9.2 mph 19.6 mph N/A   Overcast
9:29 AM 71.6 °F - 66.2 °F 83% 30.08 in 10.0 mi South 9.2 mph - N/A   Overcast
9:53 AM 73.0 °F - 64.9 °F 76% 30.06 in 10.0 mi SSE 11.5 mph - N/A   Overcast
10:53 AM 73.9 °F - 64.9 °F 73% 30.05 in 10.0 mi South 17.3 mph 24.2 mph N/A   Overcast
11:53 AM 75.9 °F - 63.0 °F 64% 30.02 in 10.0 mi South 15.0 mph 23.0 mph N/A   Overcast
12:14 PM 78.8 °F - 62.6 °F 57% 30.03 in 10.0 mi South 17.3 mph 27.6 mph N/A   Overcast
12:53 PM 81.0 °F 82.2 °F 63.0 °F 54% 29.97 in 10.0 mi South 15.0 mph 24.2 mph N/A   Mostly Cloudy
1:53 PM 82.9 °F 83.7 °F 62.1 °F 49% 29.93 in 10.0 mi SSE 17.3 mph 27.6 mph N/A   Scattered Clouds
2:53 PM 84.0 °F 84.5 °F 62.1 °F 47% 29.91 in 10.0 mi SSE 16.1 mph 23.0 mph N/A   Partly Cloudy
3:53 PM 82.9 °F 83.3 °F 61.0 °F 47% 29.91 in 10.0 mi SSE 13.8 mph 23.0 mph N/A   Partly Cloudy
4:53 PM 81.0 °F 81.7 °F 61.0 °F 50% 29.90 in 10.0 mi SE 10.4 mph - N/A   Clear
5:53 PM 77.0 °F - 63.0 °F 62% 29.92 in 10.0 mi SE 12.7 mph - N/A   Partly Cloudy
6:53 PM 73.9 °F - 64.0 °F 71% 29.94 in 10.0 mi SE 12.7 mph 20.7 mph N/A   Clear
7:29 PM 73.4 °F - 64.4 °F 73% 29.97 in 10.0 mi SE 13.8 mph - N/A   Mostly Cloudy
7:46 PM 73.4 °F - 64.4 °F 73% 29.97 in 10.0 mi SE 15.0 mph 23.0 mph N/A   Scattered Clouds
7:53 PM 73.0 °F - 64.9 °F 76% 29.95 in 10.0 mi SE 16.1 mph 20.7 mph N/A   Scattered Clouds
8:06 PM 73.4 °F - 64.4 °F 73% 29.98 in 10.0 mi SE 9.2 mph 20.7 mph N/A   Mostly Cloudy
8:53 PM 73.0 °F - 64.9 °F 76% 29.96 in 10.0 mi SE 13.8 mph 24.2 mph N/A   Overcast
9:53 PM 73.0 °F - 64.9 °F 76% 29.96 in 10.0 mi SSE 12.7 mph 21.9 mph N/A   Overcast
10:53 PM 72.0 °F - 64.9 °F 78% 29.96 in 10.0 mi SSE 12.7 mph 20.7 mph N/A   Overcast
11:53 PM 72.0 °F - 64.9 °F 78% 29.96 in 10.0 mi SSE 6.9 mph - N/A   Overcast